Lapeer, MI

12:04 AM EST on February 07, 2016 (GMT -0500)
Lapeer

Weather History for KD95 - March, 2013

Change the Weather History Date:

Tuesday, March 5, 2013

  Actual Average (KFNT) Record (KFNT)
Temperature  
Mean Temperature 20 °F 30 °F  
Max Temperature 31 °F 39 °F 66 °F (2004)
Min Temperature 10 °F 21 °F -10 °F (1948)
Degree Days  
Heating Degree Days 44 35  
Month to date heating degree days 178  
Since 1 July heating degree days 5266  
Cooling Degree Days 0 0  
Month to date cooling degree days 0  
Year to date cooling degree days 0  
Moisture  
Dew Point 19 °F    
Average Humidity 83    
Maximum Humidity 95    
Minimum Humidity 67    
Precipitation  
Precipitation 0.00 in 0.06 in 0.71 in (2011)
Month to date precipitation 0.28  
Year to date precipitation 3.39  
Snow  
Snow 0.00 in 0.20 in 6.10 in (1999)
Month to date snowfall 1.4  
Since 1 July snowfall 40.0  
Snow Depth -    
Sea Level Pressure  
Sea Level Pressure 29.99 in    
Wind  
Wind Speed 4 mph (ENE)    
Max Wind Speed 13 mph    
Max Gust Speed 18 mph    
Visibility 10 miles    
Events      
T = Trace of Precipitation, MM = Missing Value Source: NWS Daily Summary

Daily Weather History Graph

Daily Weather History Graph

Search for Another Location

Airport or City:

Trip Planner

Search our weather history database for the weather conditions in past years. The results will help you decide how hot, cold, wet, or windy it might be!

Date:

Astronomy

Mar. 05, 2013 Rise Set
Actual Time 7:02 AM EST 6:27 PM EST
Civil Twilight 6:33 AM EST 6:56 PM EST
Nautical Twilight 6:00 AM EST 7:28 PM EST
Astronomical Twilight 5:27 AM EST 8:02 PM EST
Moon 2:20 AM EST (3/5) 11:58 AM EST (3/5)
Length of Visible Light 12h 22m
Length of Day
11h 25m
Last Quarter, 41% of the Moon is Illuminated
Mar 5
Last Quarter
Mar 11
New
Mar 19
First Quarter
Mar 27
Full
Apr 3
Last Quarter

Hourly Weather History & Observations

Time (EST) Temp. Windchill Dew Point Humidity Pressure Visibility Wind Dir Wind Speed Gust Speed Precip Events Conditions
12:12 AM 15.6 °F - 13.3 °F 90% 30.12 in 10.0 mi Calm Calm - N/A   Clear
12:32 AM 14.4 °F - 13.3 °F 95% 30.12 in 10.0 mi Calm Calm - N/A   Clear
12:53 AM 13.3 °F - 12.0 °F 95% 30.12 in 10.0 mi Calm Calm - N/A   Clear
1:12 AM 13.8 °F - 12.2 °F 93% 30.12 in 10.0 mi Calm Calm - N/A   Clear
1:32 AM 13.3 °F - 11.7 °F 93% 30.12 in 10.0 mi Calm Calm - N/A   Clear
1:53 AM 13.8 °F - 12.4 °F 94% 30.12 in 10.0 mi Calm Calm - N/A   Clear
2:12 AM 12.9 °F - 11.5 °F 94% 30.12 in 10.0 mi Calm Calm - N/A   Clear
2:32 AM 11.5 °F - 10.0 °F 94% 30.12 in 7.0 mi Calm Calm - N/A   Clear
2:53 AM 11.5 °F - 10.0 °F 94% 30.11 in 10.0 mi Calm Calm - N/A   Clear
3:12 AM 10.6 °F - 9.0 °F 93% 30.10 in 10.0 mi Calm Calm - N/A   Clear
3:32 AM 11.8 °F - 10.0 °F 92% 30.10 in 10.0 mi Calm Calm - N/A   Mostly Cloudy
3:53 AM 12.2 °F - 10.4 °F 92% 30.10 in 10.0 mi Calm Calm - N/A   Overcast
4:12 AM 14.2 °F - 12.4 °F 93% 30.09 in 10.0 mi Calm Calm - N/A   Overcast
4:32 AM 15.3 °F - 13.3 °F 92% 30.09 in 10.0 mi Calm Calm - N/A   Overcast
4:52 AM 16.3 °F - 14.0 °F 90% 30.09 in 10.0 mi Calm Calm - N/A   Overcast
5:12 AM 18.1 °F - 15.8 °F 91% 30.09 in 10.0 mi Calm Calm - N/A   Overcast
5:33 AM 19.2 °F 14.1 °F 17.4 °F 93% 30.07 in 10.0 mi East 3.5 mph - N/A   Overcast
5:52 AM 21.9 °F 15.7 °F 19.0 °F 89% 30.07 in 10.0 mi ENE 4.6 mph - N/A   Overcast
6:12 AM 22.6 °F 18.0 °F 19.4 °F 87% 30.07 in 10.0 mi ENE 3.5 mph - N/A   Overcast
6:33 AM 23.0 °F 18.4 °F 19.4 °F 86% 30.07 in 10.0 mi East 3.5 mph - N/A   Overcast
6:52 AM 23.2 °F 18.7 °F 19.4 °F 85% 30.07 in 10.0 mi East 3.5 mph - N/A   Overcast
7:12 AM 23.5 °F 17.6 °F 19.4 °F 84% 30.07 in 10.0 mi East 4.6 mph - N/A   Overcast
8:12 AM 24.8 °F 17.9 °F 19.9 °F 82% 30.06 in 10.0 mi East 5.8 mph - N/A   Overcast
8:33 AM 25.5 °F 16.9 °F 20.3 °F 81% 30.06 in 10.0 mi East 8.1 mph - N/A   Overcast
8:52 AM 26.2 °F 22.1 °F 20.3 °F 78% 30.06 in 10.0 mi ESE 3.5 mph - N/A   Overcast
9:12 AM 26.6 °F 18.2 °F 20.3 °F 77% 30.06 in 10.0 mi East 8.1 mph - N/A   Overcast
9:33 AM 27.1 °F 18.9 °F 20.8 °F 77% 30.05 in 10.0 mi East 8.1 mph - N/A   Overcast
9:52 AM 27.5 °F 20.2 °F 20.8 °F 76% 30.05 in 10.0 mi East 6.9 mph - N/A   Overcast
10:12 AM 28.0 °F 19.3 °F 21.2 °F 76% 30.04 in 10.0 mi East 9.2 mph - N/A   Overcast
10:33 AM 28.2 °F 20.2 °F 21.6 °F 76% 30.04 in 10.0 mi ENE 8.1 mph - N/A   Overcast
10:52 AM 28.8 °F 20.2 °F 21.9 °F 76% 30.03 in 10.0 mi ESE 9.2 mph - N/A   Overcast
11:12 AM 28.9 °F 21.1 °F 21.6 °F 74% 30.02 in 10.0 mi East 8.1 mph - N/A   Overcast
11:33 AM 29.7 °F 22.0 °F 21.9 °F 73% 30.01 in 10.0 mi East 8.1 mph - N/A   Overcast
11:52 AM 30.2 °F 22.6 °F 22.1 °F 72% 30.01 in 10.0 mi ESE 8.1 mph - N/A   Overcast
12:12 PM 30.9 °F 25.2 °F 22.6 °F 71% 30.01 in 10.0 mi ESE 5.8 mph - N/A   Overcast
12:33 PM 30.7 °F 23.3 °F 22.6 °F 72% 30.00 in 10.0 mi East 8.1 mph - N/A   Overcast
12:52 PM 30.9 °F 25.2 °F 22.8 °F 72% 29.99 in 10.0 mi East 5.8 mph - N/A   Overcast
1:12 PM 31.1 °F 23.1 °F 22.6 °F 71% 29.98 in 10.0 mi East 9.2 mph - N/A   Overcast
1:33 PM 31.6 °F 26.0 °F 23.2 °F 71% 29.97 in 10.0 mi East 5.8 mph - N/A   Overcast
1:52 PM 31.1 °F 22.4 °F 23.0 °F 72% 29.96 in 10.0 mi ENE 10.4 mph 16.1 mph N/A   Overcast
2:12 PM 30.9 °F 22.2 °F 22.6 °F 71% 29.95 in 10.0 mi ENE 10.4 mph - N/A   Overcast
2:33 PM 30.9 °F 22.8 °F 22.3 °F 70% 29.94 in 10.0 mi NE 9.2 mph - N/A   Overcast
2:52 PM 30.7 °F 21.4 °F 21.6 °F 69% 29.93 in 10.0 mi ENE 11.5 mph 16.1 mph N/A   Mostly Cloudy
3:13 PM 31.1 °F 21.9 °F 21.2 °F 67% 29.92 in 10.0 mi ENE 11.5 mph 18.4 mph N/A   Scattered Clouds
3:33 PM 30.9 °F 21.2 °F 21.6 °F 68% 29.92 in 10.0 mi NE 12.7 mph 17.3 mph N/A   Scattered Clouds
4:12 PM 30.4 °F 22.2 °F 21.4 °F 69% 29.91 in 10.0 mi ENE 9.2 mph 17.3 mph N/A   Scattered Clouds
4:33 PM 29.8 °F 20.3 °F 21.6 °F 71% 29.90 in 10.0 mi NE 11.5 mph 17.3 mph N/A   Scattered Clouds
4:52 PM 29.3 °F 19.1 °F 21.6 °F 73% 29.89 in 10.0 mi ENE 12.7 mph 17.3 mph N/A   Scattered Clouds
5:13 PM 28.8 °F 19.0 °F 21.6 °F 74% 29.87 in 10.0 mi NE 11.5 mph 17.3 mph N/A   Mostly Cloudy
5:33 PM 27.9 °F 17.8 °F 21.4 °F 77% 29.87 in 10.0 mi NE 11.5 mph - N/A   Mostly Cloudy
5:52 PM 26.6 °F 16.2 °F 21.2 °F 80% 29.88 in 10.0 mi NE 11.5 mph 16.1 mph N/A   Mostly Cloudy
6:13 PM 25.7 °F 16.4 °F 21.2 °F 83% 29.89 in 10.0 mi NE 9.2 mph - N/A   Overcast
6:33 PM 25.3 °F 16.7 °F 21.2 °F 84% 29.90 in 10.0 mi NE 8.1 mph - N/A   Overcast
6:52 PM 25.2 °F 15.7 °F 21.6 °F 86% 29.91 in 10.0 mi ENE 9.2 mph 16.1 mph N/A   Overcast
7:13 PM 25.2 °F 15.1 °F 21.6 °F 86% 29.91 in 10.0 mi NE 10.4 mph - N/A   Overcast
7:33 PM 25.2 °F 15.7 °F 21.4 °F 86% 29.90 in 10.0 mi NE 9.2 mph - N/A   Overcast
7:52 PM 25.3 °F 16.7 °F 21.6 °F 86% 29.90 in 10.0 mi NE 8.1 mph - N/A   Overcast
8:13 PM 24.8 °F 16.1 °F 21.4 °F 87% 29.90 in 10.0 mi NE 8.1 mph - N/A   Mostly Cloudy
8:32 PM 24.8 °F 16.1 °F 21.6 °F 87% 29.89 in 10.0 mi NE 8.1 mph - N/A   Scattered Clouds
8:52 PM 24.8 °F 16.9 °F 21.6 °F 87% 29.88 in 10.0 mi NNE 6.9 mph - N/A   Clear
9:13 PM 24.8 °F 16.9 °F 21.7 °F 88% 29.88 in 10.0 mi NNE 6.9 mph - N/A   Clear
9:33 PM 24.6 °F 16.7 °F 21.7 °F 89% 29.88 in 10.0 mi NNE 6.9 mph - N/A   Clear
9:52 PM 24.6 °F 16.7 °F 21.9 °F 89% 29.88 in 10.0 mi NNE 6.9 mph - N/A   Clear
10:13 PM 24.8 °F 17.9 °F 22.1 °F 89% 29.88 in 10.0 mi NNE 5.8 mph - N/A   Clear
10:32 PM 24.6 °F 16.7 °F 21.9 °F 89% 29.88 in 10.0 mi North 6.9 mph - N/A   Clear
10:52 PM 24.8 °F 17.9 °F 22.1 °F 89% 29.88 in 10.0 mi North 5.8 mph - N/A   Scattered Clouds
11:13 PM 24.4 °F 17.5 °F 21.7 °F 89% 29.88 in 10.0 mi North 5.8 mph - N/A   Clear
11:32 PM 24.3 °F 18.4 °F 21.6 °F 89% 29.88 in 10.0 mi NNE 4.6 mph - N/A   Clear
11:52 PM 24.8 °F 16.9 °F 21.9 °F 89% 29.88 in 10.0 mi NNE 6.9 mph - N/A   Mostly Cloudy